Tunica, MS

12:37 PM CST on November 19, 2017 (GMT -0600)
Tunica

Weather History for KUTA - December, 2012

Change the Weather History Date:

Saturday, December 8, 2012

  Actual Average (KAWM) Record (KAWM)
Temperature  
Mean Temperature 60 °F -  
Max Temperature 62 °F 53 °F 73 °F (1966)
Min Temperature 57 °F 34 °F 15 °F (2006)
Degree Days  
Heating Degree Days 6    
Growing Degree Days 10 (Base 50)    
Moisture  
Dew Point 58 °F    
Average Humidity 92    
Maximum Humidity 100    
Minimum Humidity 88    
Precipitation  
Precipitation 1.03 in - - ()
Sea Level Pressure  
Sea Level Pressure 29.91 in    
Wind  
Wind Speed 6 mph (South)    
Max Wind Speed 10 mph    
Max Gust Speed -    
Visibility 5 miles    
Events Rain , Thunderstorm    
Averages and records for this station are not official NWS values.
T = Trace of Precipitation, MM = Missing Value Source: NWS Daily Summary

Daily Weather History Graph

Daily Weather History Graph

Search for Another Location

Airport or City:

Trip Planner

Search our weather history database for the weather conditions in past years. The results will help you decide how hot, cold, wet, or windy it might be!

Date:

Astronomy

Dec. 08, 2012 Rise Set
Actual Time 6:56 AM CST 4:50 PM CST
Civil Twilight 6:28 AM CST 5:18 PM CST
Nautical Twilight 5:57 AM CST 5:49 PM CST
Astronomical Twilight 5:26 AM CST 6:20 PM CST
Moon 1:31 AM CST (12/8) 1:11 PM CST (12/8)
Length of Visible Light 10h 49m
Length of Day
9h 54m
Waning Crescent, 28% of the Moon is Illuminated
Dec 8
Waning Crescent
Dec 13
New
Dec 19
First Quarter
Dec 28
Full
Jan 4
Last Quarter

Hourly Weather History & Observations

Time (CST) Temp. Dew Point Humidity Pressure Visibility Wind Dir Wind Speed Gust Speed Precip Events Conditions
12:15 AM 59.0 °F 55.4 °F 88% 29.90 in 10.0 mi South 5.8 mph - N/A   Overcast
12:35 AM 59.0 °F 55.4 °F 88% 29.90 in 10.0 mi South 4.6 mph - N/A   Overcast
12:55 AM 59.0 °F 55.4 °F 88% 29.90 in 10.0 mi South 4.6 mph - N/A   Overcast
1:15 AM 59.0 °F 55.4 °F 88% 29.90 in 7.0 mi South 4.6 mph - N/A   Overcast
1:35 AM 59.0 °F 55.4 °F 88% 29.90 in 7.0 mi South 4.6 mph - N/A   Overcast
1:55 AM 59.0 °F 55.4 °F 88% 29.90 in 7.0 mi South 6.9 mph - N/A   Overcast
2:15 AM 59.0 °F 55.4 °F 88% 29.90 in 7.0 mi South 5.8 mph - N/A   Mostly Cloudy
2:35 AM 59.0 °F 55.4 °F 88% 29.90 in 10.0 mi South 8.1 mph - N/A   Mostly Cloudy
2:55 AM 59.0 °F 55.4 °F 88% 29.90 in 10.0 mi South 6.9 mph - N/A   Mostly Cloudy
3:15 AM 59.0 °F 55.4 °F 88% 29.90 in 10.0 mi South 6.9 mph - N/A   Overcast
3:35 AM 59.0 °F 55.4 °F 88% 29.90 in 10.0 mi South 4.6 mph - N/A   Mostly Cloudy
3:55 AM 59.0 °F 55.4 °F 88% 29.89 in 10.0 mi South 8.1 mph - N/A   Mostly Cloudy
4:15 AM 59.0 °F 55.4 °F 88% 29.89 in 10.0 mi South 6.9 mph - N/A   Mostly Cloudy
4:35 AM 59.0 °F 55.4 °F 88% 29.89 in 10.0 mi South 8.1 mph - N/A   Mostly Cloudy
4:55 AM 59.0 °F 55.4 °F 88% 29.90 in 10.0 mi South 9.2 mph - N/A   Mostly Cloudy
5:15 AM 59.0 °F 55.4 °F 88% 29.90 in 10.0 mi South 9.2 mph - N/A   Scattered Clouds
5:35 AM 59.0 °F 55.4 °F 88% 29.89 in 10.0 mi South 6.9 mph - N/A Thunderstorm Scattered Clouds
5:55 AM 59.0 °F 55.4 °F 88% 29.90 in 10.0 mi South 8.1 mph - N/A Thunderstorm Mostly Cloudy
6:15 AM 59.0 °F 55.4 °F 88% 29.90 in 10.0 mi South 6.9 mph - N/A Rain Light Rain
6:35 AM 59.0 °F 55.4 °F 88% 29.92 in 4.0 mi SW 8.1 mph - 0.18 in Rain , Thunderstorm Heavy Thunderstorms and Rain
6:55 AM 59.0 °F 55.4 °F 88% 29.91 in 2.0 mi South 6.9 mph - 0.62 in Rain , Thunderstorm Heavy Thunderstorms and Rain
7:15 AM 59.0 °F 55.4 °F 88% 29.91 in 2.5 mi WSW 4.6 mph - 0.15 in Rain , Thunderstorm Light Thunderstorms and Rain
7:35 AM 57.2 °F 55.4 °F 94% 29.93 in 3.0 mi Calm Calm - 0.22 in Rain , Thunderstorm Light Thunderstorms and Rain
7:55 AM 59.0 °F 55.4 °F 88% 29.93 in 7.0 mi Calm Calm - 0.23 in Thunderstorm Thunderstorm
8:15 AM 59.0 °F 55.4 °F 88% 29.94 in 5.0 mi SSE 3.5 mph - N/A Rain , Thunderstorm Light Thunderstorms and Rain
8:35 AM 59.0 °F 55.4 °F 88% 29.94 in 5.0 mi South 8.1 mph - 0.02 in Rain , Thunderstorm Light Thunderstorms and Rain
8:55 AM 59.0 °F 55.4 °F 88% 29.95 in 5.0 mi South 4.6 mph - 0.02 in Rain , Thunderstorm Thunderstorms and Rain
9:15 AM 59.0 °F 55.4 °F 88% 29.95 in 7.0 mi South 5.8 mph - N/A Thunderstorm Thunderstorm
9:55 AM 59.0 °F 57.2 °F 94% 29.95 in 4.0 mi South 3.5 mph - 0.01 in Rain Light Rain
10:15 AM 59.0 °F 59.0 °F 100% 29.95 in 5.0 mi South 9.2 mph - N/A   Overcast
10:35 AM 59.0 °F 59.0 °F 100% 29.94 in 5.0 mi South 6.9 mph - 0.01 in Thunderstorm Overcast
10:55 AM 59.0 °F 59.0 °F 100% 29.94 in 5.0 mi South 5.8 mph - 0.01 in Thunderstorm Overcast
11:15 AM 60.8 °F 59.0 °F 94% 29.94 in 2.5 mi South 5.8 mph - N/A Thunderstorm Overcast
11:35 AM 60.8 °F 59.0 °F 94% 29.93 in 2.5 mi South 6.9 mph - N/A Thunderstorm Overcast
11:55 AM 60.8 °F 59.0 °F 94% 29.92 in 2.0 mi South 6.9 mph - N/A   Overcast
12:15 PM 60.8 °F 59.0 °F 94% 29.91 in 1.8 mi South 6.9 mph - N/A   Overcast
12:35 PM 60.8 °F 59.0 °F 94% 29.91 in 1.2 mi South 9.2 mph - 0.03 in Rain Heavy Rain
12:55 PM 60.8 °F 59.0 °F 94% 29.90 in 1.5 mi South 6.9 mph - 0.13 in Rain Rain
1:15 PM 60.8 °F 59.0 °F 94% 29.90 in 2.0 mi South 5.8 mph - 0.01 in Rain Light Rain
1:35 PM 60.8 °F 60.8 °F 100% 29.89 in 2.5 mi SSE 5.8 mph - 0.01 in   Overcast
1:55 PM 62.6 °F 60.8 °F 94% 29.88 in 3.0 mi South 4.6 mph - 0.01 in   Overcast
2:15 PM 62.6 °F 60.8 °F 94% 29.88 in 5.0 mi SSW 6.9 mph - N/A   Overcast
2:35 PM 62.6 °F 60.8 °F 94% 29.89 in 5.0 mi SSW 8.1 mph - N/A   Overcast
2:55 PM 62.6 °F 60.8 °F 94% 29.89 in 7.0 mi SSW 6.9 mph - N/A   Overcast
3:15 PM 62.6 °F 60.8 °F 94% 29.89 in 7.0 mi SSW 6.9 mph - N/A   Overcast
3:35 PM 62.6 °F 60.8 °F 94% 29.90 in 4.0 mi South 6.9 mph - N/A   Overcast
3:55 PM 62.6 °F 60.8 °F 94% 29.90 in 3.0 mi South 6.9 mph - N/A   Overcast
4:15 PM 62.6 °F 60.8 °F 94% 29.90 in 2.5 mi South 5.8 mph - N/A   Overcast
4:35 PM 62.6 °F 60.8 °F 94% 29.90 in 2.5 mi South 4.6 mph - N/A   Overcast
4:55 PM 62.6 °F 60.8 °F 94% 29.91 in 3.0 mi South 6.9 mph - N/A   Overcast
5:15 PM 62.6 °F 60.8 °F 94% 29.90 in 4.0 mi South 6.9 mph - N/A   Overcast
5:35 PM 62.6 °F 60.8 °F 94% 29.91 in 4.0 mi South 3.5 mph - N/A   Overcast
5:55 PM 62.6 °F 60.8 °F 94% 29.91 in 4.0 mi South 3.5 mph - N/A   Overcast
6:15 PM 62.6 °F 60.8 °F 94% 29.91 in 3.0 mi Calm Calm - N/A   Overcast
6:35 PM 62.6 °F 60.8 °F 94% 29.91 in 3.0 mi SSE 4.6 mph - N/A   Overcast
6:55 PM 62.6 °F 60.8 °F 94% 29.92 in 2.0 mi SSE 3.5 mph - N/A   Overcast
7:15 PM 62.6 °F 60.8 °F 94% 29.92 in 2.5 mi SSE 3.5 mph - N/A   Overcast
7:35 PM 62.6 °F 60.8 °F 94% 29.92 in 2.5 mi SSE 4.6 mph - N/A   Overcast
7:55 PM 62.6 °F 60.8 °F 94% 29.92 in 2.5 mi South 4.6 mph - N/A   Overcast
8:15 PM 62.6 °F 60.8 °F 94% 29.92 in 1.5 mi SSE 4.6 mph - N/A   Overcast
8:35 PM 62.6 °F 60.8 °F 94% 29.92 in 2.0 mi South 4.6 mph - N/A   Overcast
8:55 PM 62.6 °F 60.8 °F 94% 29.92 in 3.0 mi SSE 5.8 mph - N/A   Overcast
9:15 PM 62.6 °F 60.8 °F 94% 29.92 in 3.0 mi South 3.5 mph - N/A   Overcast
9:35 PM 60.8 °F 60.8 °F 100% 29.92 in 3.0 mi Calm Calm - N/A   Overcast
9:55 PM 60.8 °F 59.0 °F 94% 29.92 in 2.5 mi SSE 4.6 mph - N/A   Overcast
10:15 PM 60.8 °F 59.0 °F 94% 29.93 in 2.5 mi SSE 4.6 mph - N/A   Mist
10:35 PM 60.8 °F 59.0 °F 94% 29.93 in 3.0 mi SE 5.8 mph - N/A   Overcast
10:55 PM 60.8 °F 60.8 °F 100% 29.91 in 5.0 mi SE 6.9 mph - N/A   Scattered Clouds
11:15 PM 60.8 °F 59.0 °F 94% 29.91 in 5.0 mi SSE 8.1 mph - N/A   Scattered Clouds
11:35 PM 60.8 °F 60.8 °F 100% 29.90 in 7.0 mi SSE 10.4 mph - N/A   Scattered Clouds
11:55 PM 60.8 °F 59.0 °F 94% 29.90 in 7.0 mi SSE 9.2 mph - N/A   Scattered Clouds